New River MCAS, NC

11:39 AM EST on November 20, 2017 (GMT -0500)
New River Marine Corps Air Station

Weather History for KNCA - November, 2013

Change the Weather History Date:

Wednesday, November 20, 2013

  Actual Average Record
Temperature  
Mean Temperature 50 °F -  
Max Temperature 59 °F 62 °F 75 °F (2011)
Min Temperature 41 °F 41 °F 32 °F (1997)
Degree Days  
Heating Degree Days 15    
Moisture  
Dew Point 39 °F    
Average Humidity 69    
Maximum Humidity 83    
Minimum Humidity 53    
Precipitation  
Precipitation 0.00 in - - ()
Sea Level Pressure  
Sea Level Pressure 30.35 in    
Wind  
Wind Speed 10 mph (NNE)    
Max Wind Speed 17 mph    
Max Gust Speed 24 mph    
Visibility 10 miles    
Events      
Averages and records for this station are not official NWS values.
T = Trace of Precipitation, MM = Missing Value Source: NWS Daily Summary

Daily Weather History Graph

Daily Weather History Graph

Search for Another Location

Airport or City:

Trip Planner

Search our weather history database for the weather conditions in past years. The results will help you decide how hot, cold, wet, or windy it might be!

Date:

Astronomy

Nov. 20, 2013 Rise Set
Actual Time 6:48 AM EST 5:01 PM EST
Civil Twilight 6:21 AM EST 5:29 PM EST
Nautical Twilight 5:50 AM EST 5:59 PM EST
Astronomical Twilight 5:20 AM EST 6:29 PM EST
Moon 7:43 PM EST 9:12 AM EST
Length of Visible Light 11h 07m
Length of Day
10h 13m
Waning Gibbous, 91% of the Moon is Illuminated
Nov 20
Waning Gibbous
Nov 25
Last Quarter
Dec 2
New
Dec 9
First Quarter
Dec 17
Full

Hourly Weather History & Observations

Time (EST) Temp. Windchill Dew Point Humidity Pressure Visibility Wind Dir Wind Speed Gust Speed Precip Events Conditions
12:56 AM 43.0 °F 38.2 °F 35.1 °F 74% 30.28 in 10.0 mi North 8.1 mph - N/A   Overcast
1:56 AM 42.1 °F 35.7 °F 35.1 °F 76% 30.27 in 10.0 mi North 11.5 mph - N/A   Clear
2:56 AM 41.0 °F 37.1 °F 34.0 °F 76% 30.29 in 10.0 mi NNW 5.8 mph - N/A   Mostly Cloudy
3:56 AM 41.0 °F 34.3 °F 33.1 °F 73% 30.30 in 10.0 mi North 11.5 mph - N/A   Clear
4:56 AM 41.0 °F 35.8 °F 32.0 °F 70% 30.29 in 10.0 mi North 8.1 mph - N/A   Mostly Cloudy
5:56 AM 41.0 °F 35.2 °F 33.1 °F 73% 30.30 in 10.0 mi North 9.2 mph - N/A   Clear
6:56 AM 42.1 °F 37.1 °F 33.1 °F 70% 30.34 in 10.0 mi North 8.1 mph - N/A   Mostly Cloudy
7:56 AM 42.1 °F 36.1 °F 33.1 °F 70% 30.35 in 10.0 mi North 10.4 mph - N/A   Overcast
8:56 AM 46.0 °F 39.9 °F 35.1 °F 66% 30.36 in 9.0 mi NNE 13.8 mph - N/A   Mostly Cloudy
9:56 AM 48.9 °F - 37.0 °F 64% 30.38 in 10.0 mi NNE 12.7 mph - N/A   Overcast
10:56 AM 52.0 °F - 39.0 °F 61% 30.38 in 10.0 mi NNE 13.8 mph - N/A   Mostly Cloudy
11:56 AM 54.0 °F - 39.9 °F 59% 30.37 in 10.0 mi NNE 16.1 mph - N/A   Overcast
12:56 PM 57.0 °F - 41.0 °F 55% 30.35 in 10.0 mi NNE 13.8 mph - N/A   Scattered Clouds
1:56 PM 59.0 °F - 42.1 °F 53% 30.34 in 10.0 mi NNE 13.8 mph - N/A   Scattered Clouds
2:56 PM 57.9 °F - 43.0 °F 58% 30.33 in 10.0 mi NE 17.3 mph - N/A   Clear
3:56 PM 57.0 °F - 42.1 °F 57% 30.35 in 10.0 mi NE 17.3 mph 24.2 mph N/A   Clear
4:56 PM 54.0 °F - 43.0 °F 66% 30.36 in 10.0 mi NNE 11.5 mph - N/A   Clear
5:56 PM 53.1 °F - 43.0 °F 69% 30.37 in 10.0 mi NNE 13.8 mph - N/A   Clear
6:56 PM 51.1 °F - 43.0 °F 74% 30.38 in 10.0 mi NE 9.2 mph - N/A   Clear
7:56 PM 50.0 °F - 43.0 °F 77% 30.39 in 10.0 mi NE 10.4 mph - N/A   Clear
8:56 PM 48.9 °F - 42.1 °F 77% 30.39 in 10.0 mi NNE 9.2 mph - N/A   Clear
9:56 PM 48.0 °F - 42.1 °F 80% 30.40 in 10.0 mi NNE 6.9 mph - N/A   Clear
10:56 PM 48.0 °F - 43.0 °F 83% 30.40 in 10.0 mi NNE 8.1 mph - N/A   Partly Cloudy
11:56 PM 48.0 °F - 43.0 °F 83% 30.40 in 10.0 mi North 5.8 mph - N/A   Mostly Cloudy